Regional Weather Roundup
Issued by NWS Upton, NY

Current Version | Previous Version | Graphics & Text | Print | Product List | Glossary Off
Versions: 1 2 3 4 5 6 7 8 9 10 11 12 13 14 15 16 17 18 19 20 21 22 23 24 25 26 27 28

000
ASUS41 KOKX 232005
RWROKX

REGIONAL WEATHER ROUNDUP
NATIONAL WEATHER SERVICE NEW YORK NY
400 PM EDT WED APR 23 2014

NOTE: "FAIR" INDICATES FEW OR NO CLOUDS BELOW 12,000 FEET WITH NO
SIGNIFICANT WEATHER AND/OR OBSTRUCTIONS TO VISIBILITY.

NYZ071-072-176-178-NJZ106-104-232100-
NEW YORK CITY METRO AREA


CITY           SKY/WX    TMP DP  RH WIND       PRES   REMARKS
CENTRAL PARK   PTSUNNY   59  32  36 NW14G30   29.63S
LAGUARDIA APRT PTSUNNY   58  33  39 NW20G32   29.59S
KENNEDY INTL   PTSUNNY   61  32  33 NW30G36   29.60S
NEWARK/LIBERTY PTSUNNY   61  33  35 NW23G32   29.61R
TETERBORO      PTSUNNY   61  35  37 NW20G31   29.60R
$$

NYZ177-179-078>081-232100-
LONG ISLAND NEW YORK

CITY           SKY/WX    TMP DP  RH WIND       PRES   REMARKS
FARMINGDALE    MOSUNNY   58  36  43 N18G29    29.59R
ISLIP          MOSUNNY   57  37  47 NW28G36   29.55R
SHIRLEY        MOSUNNY   57  38  48 N22G29    29.56S
WESTHAMPTON    SUNNY     58  37  45 NW24G37   29.54S
MONTAUK POINT    N/A     51  40  65 NW12G21   29.51R
$$

NYZ052-065-067-232100-
HUDSON VALLEY

CITY           SKY/WX    TMP DP  RH WIND       PRES   REMARKS
WHITE PLAINS   PTSUNNY   59  34  39 NW17G28   29.58S
NEWBURGH       PTSUNNY   55  37  50 NW15G31   29.64R
MONTGOMERY     MOSUNNY   57  34  41 NW21G38   29.64R
POUGHKEEPSIE   PTSUNNY   54  35  48 NW17G30   29.62R
ALBANY         PTSUNNY   50  33  52 NW25G37   29.65R
$$

NJZ001-105-106-008-010-013-015-019>022-104-232100-
NEW JERSEY

CITY           SKY/WX    TMP DP  RH WIND       PRES   REMARKS
NEWARK/LIBERTY PTSUNNY   61  33  35 NW23G32   29.61R
TETERBORO      PTSUNNY   61  35  37 NW20G31   29.60R
CALDWELL       PTSUNNY   58  34  40 N12G26    29.64R
MORRISTOWN     PTSUNNY   59  34  38 N12G29    29.65R
SOMERVILLE     MOSUNNY   59  34  39 NW28G37   29.64S
LINDEN         MOCLDY    62  35  36 NW17G33   29.64S
SUSSEX         MOSUNNY   55  34  45 NW13G26   29.69R
ANDOVER          N/A     53  34  48 N10G26    29.68R
TRENTON        MOSUNNY   58  33  39 NW21G36   29.67R
MILLVILLE      MOSUNNY   59  36  42 NW15G36   29.72R
ATLANTIC CITY  PTSUNNY   59  35  40 NW28G37   29.67R
WRIGHTSTOWN    PTSUNNY   60  35  39 NW20G29   29.65R
TOMS RIVER     PTSUNNY   59  34  38 NW26G38   29.64S
BELMAR         PTSUNNY   61  34  36 NW24G31   29.63R
$$

PAZ047>061-062-071-232100-
EASTERN PENNSYLVANIA

CITY           SKY/WX    TMP DP  RH WIND       PRES   REMARKS
PHILADELPHIA   PTSUNNY   60  32  34 NW22G36   29.73R
ALLENTOWN      CLOUDY    55  34  45 NW17G30   29.73R
SCRANTON       CLOUDY    46  33  60 NW20G30   29.78R
$$

CTZ002-004>006-009-010-012-RIZ004-006-007-MAZ004-011-015-232100-
SOUTHERN NEW ENGLAND
 IN CT

CITY           SKY/WX    TMP DP  RH WIND       PRES   REMARKS
BRADLEY INTL   PTSUNNY   55  37  50 N16G29    29.52F
HARTFORD       PTSUNNY   54  38  54 NW16G23   29.53F
DANBURY        CLOUDY    53  35  50 NW20G30   29.60S
WTRBRY/OXFORD  PTSUNNY   52  36  54 N17G35    29.59S
BRIDGEPORT     MOSUNNY   57  38  48 NW20G35   29.56R
MERIDEN        CLOUDY    54  38  54 N17G28    29.54F
NEW HAVEN      CLOUDY    56  38  50 NW14G35   29.55S
CHESTER        FAIR      54  37  54 NW23      29.52S
GROTON         PTSUNNY   57  39  51 NW24G33   29.48S
WILLIMANTIC    CLOUDY    55  36  48 NW16G29   29.51S

 IN RI

CITY           SKY/WX    TMP DP  RH WIND       PRES   REMARKS
PROVIDENCE     CLOUDY    52  40  63 NW23G32   29.46S
BLOCK ISLAND   CLOUDY    52  39  62 NW16G23   29.47R
WESTERLY       CLOUDY    56  39  53 NW17G30   29.48S

 IN MA

CITY           SKY/WX    TMP DP  RH WIND       PRES   REMARKS
BOSTON         CLOUDY    53  38  56 NW24G35   29.44F
WORCESTER      CLOUDY    49  35  58 NW15G36   29.48S
WESTFIELD      CLOUDY    56  36  47 NW24G33   29.52F
PROVINCETOWN   CLOUDY    45  43  93 MISG      29.42R
NANTUCKET      CLOUDY    51  45  79 NW15G25   29.40R
$$

ANZ330-335-338-340-345-350-353-355-232100-
COASTAL MARINE OBSERVATIONS


STATION/POSITION TIME  SKY/WX   TEMP    WIND        PRES    VSBY  WAVE
                                AIR SEA DIR/SP/G                  HT/PER
                 (UTC)          (F)     (DEG/KT/KT) (MB)    (MI)  (FT/S)
NY HARB ENTRANCE 2000            51 46  VRB 16/ 19  1002.1
4S FIRE IS       1900               46                N/A           4/11
23SW MTP         2000            47 43  310/ 16/ 17  998.8          4/ 4
HUDSON CANYON    1900            47 44  290/ 14/ 16 1001.3          5/ 6
EXECUTION ROCKS  2000            55 46  330/ 17/ 25   N/A
WESTERN LI SOUND 2000            54     330/ 14/ 19   N/A           1/ 3
CENTRAL LI SOUND 1900            49 44  320/ 19/ 25   N/A           2/ 4
EASTERN LI SOUND NOT AVBL
ROBBINS REEF     2000            58     320/ 19/ 25   N/A
$$


>>>>>>>>>>>>>>>>>>>>>>>>>>>> KEY <<<<<<<<<<<<<<<<<<<<<<<<<<<
>                                                          <
>     SKY/WX - SKY CONDITION/PRESENT WEATHER               <
>     TMP    - TEMPERATURE IN FAHRENHEIT                   <
>     DP     - DEWPOINT IN FAHRENHEIT                      <
>     RH     - RELATIVE HUMIDITY IN PERCENT                <
>     WIND   - DIRECTION AND SPEED IN MPH                  <
>     PRES   - MEAN SEA LEVEL PRESSURE IN INCHES OF HG     <
>     WCI    - WIND CHILL INDEX                            <
>     VSB    - VISIBILITY IN MILES                         <
>     HX     - HEAT INDEX                                  <
>     TC     - TEMPERATURE IN CELSIUS                      <
>     VRB    - VARIABLE WIND DIRECTION                     <
>                                                          <
>>>>>>>>>>>>>>>>>>>>>>>>>>>> KEY <<<<<<<<<<<<<<<<<<<<<<<<<<<





USA.gov is the U.S. government's official web portal to all federal, state and local government web resources and services.